Precipitable_Water
0.41 0.53 0.66 0.65 0.71 0.42 0.62 0.58 0.48 0.55 0.67 0.62 0.54 0.55 0.60 0.58 0.49 0.41 0.60 0.57 0.67 0.84 0.89 0.99 1.09 1.10 1.13 1.20 1.28 1.37 1.38 1.38 1.38 1.31 1.20 1.10 1.11 1.15 1.17 1.16 1.12 1.11 1.13 1.14 1.15 1.17 1.20 1.22 1.23 1.23 1.26 1.30 1.29 1.29 1.29 1.29 1.33 1.37 1.39 1.42 1.45 1.48 1.50
0.49 0.48 0.54 0.71 0.79 0.72 0.64 0.50 0.58 0.70 0.79 0.71 0.55 0.41 0.50 0.44 0.35 0.40 0.52 0.46 0.53 0.59 0.52 0.94 1.01 1.02 1.08 1.12 1.18 1.29 1.39 1.43 1.36 1.34 1.30 1.19 1.14 1.15 1.17 1.18 1.16 1.13 1.13 1.13 1.15 1.18 1.20 1.22 1.23 1.25 1.28 1.34 1.37 1.37 1.35 1.32 1.33 1.33 1.37 1.42 1.44 1.46 1.47
0.53 0.60 0.61 0.64 0.78 0.82 0.65 0.61 0.80 0.52 0.49 0.43 0.56 0.49 0.38 0.36 0.33 0.36 0.44 0.51 0.52 0.58 0.60 0.79 0.86 0.94 1.01 1.08 1.16 1.24 1.31 1.39 1.38 1.36 1.34 1.29 1.23 1.19 1.17 1.17 1.16 1.14 1.12 1.13 1.16 1.16 1.20 1.24 1.28 1.29 1.31 1.35 1.39 1.42 1.44 1.42 1.37 1.38 1.41 1.45 1.46 1.48 1.49
0.43 0.53 0.61 0.45 0.59 0.75 0.74 0.73 0.65 0.72 0.58 0.51 0.44 0.49 0.53 0.50 0.39 0.36 0.35 0.46 0.42 0.61 0.67 0.80 0.87 0.97 1.03 1.07 1.13 1.18 1.29 1.38 1.41 1.39 1.35 1.34 1.31 1.23 1.17 1.15 1.14 1.12 1.10 1.12 1.15 1.17 1.18 1.20 1.25 1.31 1.35 1.37 1.36 1.41 1.45 1.46 1.48 1.48 1.47 1.46 1.47 1.44 1.46
0.41 0.36 0.44 0.47 0.48 0.52 0.58 0.57 0.58 0.62 0.60 0.68 0.58 0.61 0.52 0.46 0.40 0.41 0.37 0.35 0.45 0.62 0.84 0.86 0.91 1.00 1.08 1.09 1.10 1.19 1.28 1.38 1.41 1.40 1.37 1.37 1.37 1.27 1.17 1.13 1.13 1.14 1.14 1.14 1.17 1.21 1.23 1.25 1.28 1.31 1.33 1.33 1.35 1.39 1.41 1.45 1.45 1.46 1.46 1.48 1.48 1.45 1.46
0.35 0.39 0.49 0.50 0.54 0.59 0.53 0.55 0.55 0.59 0.51 0.47 0.39 0.39 0.57 0.51 0.43 0.39 0.37 0.34 0.46 0.68 0.98 0.97 0.98 1.07 1.13 1.18 1.18 1.20 1.27 1.35 1.39 1.39 1.36 1.37 1.37 1.32 1.23 1.17 1.16 1.17 1.18 1.19 1.21 1.24 1.26 1.26 1.26 1.26 1.29 1.34 1.35 1.35 1.38 1.42 1.46 1.48 1.48 1.49 1.49 1.49 1.48
0.37 0.44 0.53 0.62 0.65 0.68 0.72 0.68 0.62 0.67 0.58 0.51 0.44 0.38 0.46 0.51 0.51 0.54 0.51 0.41 0.45 0.83 1.00 1.01 1.03 1.11 1.17 1.23 1.27 1.26 1.30 1.35 1.39 1.40 1.37 1.38 1.39 1.36 1.31 1.24 1.20 1.21 1.23 1.23 1.23 1.23 1.23 1.23 1.23 1.25 1.28 1.29 1.31 1.35 1.39 1.41 1.41 1.45 1.51 1.54 1.55 1.53 1.50
0.41 0.47 0.53 0.59 0.66 0.64 0.62 0.69 0.77 0.70 0.57 0.57 0.50 0.49 0.53 0.46 0.51 0.45 0.48 0.40 0.51 0.84 1.04 1.04 1.05 1.13 1.19 1.26 1.30 1.30 1.33 1.38 1.42 1.41 1.40 1.40 1.40 1.43 1.43 1.38 1.32 1.28 1.27 1.29 1.28 1.25 1.26 1.26 1.26 1.26 1.28 1.29 1.31 1.34 1.38 1.42 1.40 1.45 1.52 1.56 1.57 1.54 1.51
0.32 0.37 0.44 0.47 0.63 0.66 0.60 0.58 0.65 0.69 0.70 0.68 0.67 0.68 0.66 0.47 0.47 0.47 0.43 0.36 0.46 0.79 1.04 1.05 1.08 1.11 1.13 1.21 1.29 1.37 1.35 1.39 1.42 1.43 1.44 1.42 1.42 1.44 1.44 1.41 1.38 1.35 1.32 1.29 1.27 1.27 1.26 1.27 1.29 1.30 1.30 1.31 1.32 1.34 1.38 1.39 1.41 1.47 1.54 1.62 1.61 1.59 1.56
0.21 0.23 0.25 0.30 0.39 0.49 0.57 0.59 0.61 0.64 0.60 0.58 0.53 0.44 0.50 0.41 0.49 0.50 0.46 0.43 0.60 0.82 0.99 1.00 1.01 1.08 1.11 1.24 1.32 1.37 1.44 1.44 1.45 1.49 1.49 1.46 1.44 1.41 1.43 1.44 1.42 1.37 1.35 1.33 1.32 1.31 1.31 1.31 1.32 1.33 1.34 1.35 1.37 1.40 1.41 1.44 1.44 1.47 1.53 1.61 1.63 1.63 1.63
0.27 0.30 0.36 0.46 0.51 0.51 0.45 0.50 0.54 0.56 0.61 0.61 0.55 0.51 0.44 0.40 0.47 0.44 0.52 0.52 0.53 0.64 0.80 0.90 0.97 1.02 1.04 1.13 1.26 1.31 1.35 1.47 1.55 1.57 1.55 1.52 1.48 1.46 1.47 1.49 1.50 1.48 1.42 1.37 1.37 1.38 1.37 1.36 1.37 1.37 1.36 1.37 1.40 1.43 1.44 1.48 1.50 1.51 1.53 1.58 1.62 1.63 1.65
0.36 0.40 0.43 0.51 0.53 0.47 0.49 0.48 0.50 0.57 0.57 0.59 0.55 0.50 0.45 0.59 0.47 0.37 0.58 0.65 0.56 0.63 0.77 0.90 0.97 1.03 1.08 1.14 1.21 1.26 1.38 1.47 1.47 1.54 1.62 1.63 1.58 1.55 1.55 1.53 1.52 1.50 1.49 1.47 1.45 1.44 1.43 1.42 1.44 1.44 1.44 1.44 1.43 1.44 1.45 1.49 1.52 1.52 1.53 1.54 1.59 1.62 1.63
0.41 0.47 0.51 0.54 0.56 0.53 0.52 0.52 0.52 0.52 0.57 0.57 0.50 0.54 0.61 0.61 0.44 0.40 0.55 0.64 0.58 0.69 0.79 0.89 1.01 1.07 1.07 1.15 1.23 1.26 1.37 1.43 1.50 1.54 1.55 1.60 1.62 1.59 1.53 1.52 1.54 1.56 1.55 1.54 1.53 1.52 1.50 1.50 1.48 1.48 1.50 1.52 1.54 1.54 1.55 1.56 1.57 1.55 1.59 1.56 1.56 1.59 1.63
0.37 0.41 0.46 0.54 0.52 0.53 0.51 0.52 0.53 0.56 0.57 0.55 0.57 0.58 0.63 0.63 0.59 0.61 0.65 0.67 0.67 0.78 0.86 0.95 1.05 1.16 1.17 1.22 1.30 1.37 1.35 1.32 1.39 1.44 1.50 1.55 1.58 1.57 1.53 1.54 1.57 1.59 1.60 1.61 1.62 1.61 1.58 1.55 1.54 1.54 1.56 1.58 1.61 1.61 1.60 1.62 1.61 1.65 1.66 1.61 1.60 1.62 1.63
0.33 0.38 0.42 0.47 0.48 0.48 0.45 0.51 0.55 0.57 0.59 0.59 0.59 0.59 0.60 0.64 0.63 0.66 0.65 0.67 0.67 0.87 1.01 1.05 1.13 1.21 1.26 1.25 1.19 1.27 1.42 1.45 1.42 1.40 1.40 1.46 1.53 1.57 1.59 1.60 1.62 1.64 1.65 1.67 1.68 1.66 1.65 1.64 1.62 1.62 1.63 1.67 1.71 1.74 1.77 1.78 1.75 1.77 1.74 1.70 1.69 1.70 1.71
0.27 0.35 0.38 0.41 0.44 0.45 0.44 0.43 0.47 0.52 0.52 0.48 0.55 0.53 0.62 0.55 0.54 0.61 0.62 0.59 0.65 0.91 1.04 1.08 1.13 1.16 1.16 1.13 1.18 1.27 1.34 1.45 1.46 1.39 1.42 1.44 1.49 1.55 1.60 1.62 1.64 1.66 1.68 1.71 1.73 1.73 1.75 1.74 1.71 1.70 1.69 1.72 1.75 1.77 1.84 1.86 1.88 1.89 1.84 1.80 1.76 1.76 1.83
0.20 0.31 0.37 0.38 0.40 0.39 0.34 0.37 0.44 0.50 0.55 0.57 0.59 0.63 0.67 0.66 0.68 0.57 0.50 0.59 0.87 0.97 1.05 1.00 1.07 1.13 1.16 1.16 1.16 1.18 1.33 1.43 1.45 1.44 1.41 1.47 1.51 1.57 1.62 1.63 1.65 1.68 1.71 1.76 1.80 1.83 1.85 1.84 1.82 1.83 1.84 1.81 1.79 1.84 1.85 1.92 1.97 1.96 1.94 1.92 1.92 1.90 1.89
0.22 0.29 0.32 0.38 0.32 0.24 0.26 0.56 0.64 0.61 0.57 0.62 0.56 0.54 0.59 0.68 0.70 0.66 0.74 0.82 0.95 0.97 1.02 0.97 0.99 1.05 1.10 1.19 1.30 1.29 1.28 1.35 1.47 1.50 1.49 1.51 1.53 1.57 1.63 1.68 1.69 1.73 1.77 1.80 1.84 1.88 1.90 1.92 1.94 1.96 1.96 1.91 1.91 1.94 1.93 1.95 1.96 1.99 1.99 1.95 1.92 1.91 1.94
0.22 0.28 0.28 0.24 0.20 0.23 0.47 0.58 0.68 0.74 0.74 0.72 0.64 0.65 0.70 0.70 0.77 0.78 0.80 0.88 0.96 1.02 1.04 1.05 1.09 1.16 1.21 1.31 1.33 1.31 1.34 1.37 1.45 1.45 1.52 1.54 1.55 1.57 1.62 1.64 1.68 1.71 1.75 1.79 1.83 1.85 1.89 1.94 1.98 1.99 1.99 2.01 2.02 2.01 2.01 1.98 2.00 2.01 2.02 2.00 1.97 1.96 1.95
0.28 0.24 0.24 0.15 0.19 0.38 0.47 0.53 0.58 0.73 0.75 0.74 0.68 0.60 0.68 0.75 0.76 0.80 0.79 0.89 0.98 1.00 1.04 1.08 1.14 1.16 1.23 1.28 1.30 1.34 1.38 1.46 1.46 1.44 1.46 1.51 1.57 1.56 1.60 1.59 1.61 1.64 1.66 1.69 1.73 1.77 1.87 1.90 1.92 1.96 1.96 2.02 2.00 1.99 2.04 2.01 2.01 2.02 2.01 2.00 2.00 1.99 1.99
0.23 0.25 0.24 0.22 0.32 0.32 0.37 0.41 0.47 0.53 0.52 0.59 0.58 0.48 0.59 0.73 0.80 0.82 0.82 0.87 0.94 0.96 1.01 1.07 1.12 1.16 1.15 1.08 1.14 1.28 1.28 1.36 1.41 1.50 1.54 1.61 1.56 1.60 1.63 1.65 1.65 1.69 1.71 1.72 1.76 1.78 1.80 1.83 1.85 1.88 1.96 2.01 2.01 2.02 2.03 2.06 2.06 2.04 2.02 1.99 2.00 2.03 2.03
0.32 0.25 0.23 0.23 0.23 0.19 0.28 0.41 0.52 0.63 0.67 0.68 0.71 0.62 0.54 0.73 0.82 0.89 0.88 0.86 0.90 0.93 1.00 1.05 1.09 1.10 0.95 0.85 0.96 1.22 1.28 1.35 1.43 1.54 1.57 1.58 1.61 1.65 1.66 1.68 1.65 1.66 1.70 1.74 1.78 1.78 1.78 1.81 1.85 1.91 1.96 1.96 1.93 1.92 1.94 1.99 1.98 1.99 2.02 2.02 2.03 2.04 2.06
0.29 0.27 0.22 0.22 0.18 0.22 0.34 0.40 0.49 0.60 0.69 0.71 0.76 0.57 0.44 0.67 0.80 0.89 0.92 0.87 0.93 0.97 0.99 1.02 1.05 0.93 0.77 0.77 0.92 1.17 1.18 1.27 1.48 1.49 1.56 1.53 1.57 1.62 1.62 1.61 1.59 1.60 1.62 1.69 1.73 1.76 1.75 1.72 1.80 1.87 1.85 1.82 1.81 1.81 1.86 1.91 1.93 1.94 1.94 1.96 1.98 2.01 2.08
0.26 0.25 0.22 0.20 0.25 0.22 0.39 0.45 0.51 0.57 0.68 0.73 0.63 0.36 0.38 0.65 0.81 0.90 0.94 0.91 0.92 1.00 1.02 1.03 0.96 0.90 0.76 0.79 0.94 1.21 1.24 1.26 1.42 1.47 1.48 1.53 1.55 1.58 1.62 1.64 1.64 1.63 1.66 1.67 1.68 1.68 1.68 1.69 1.77 1.79 1.78 1.77 1.76 1.78 1.80 1.88 1.89 1.88 1.94 1.98 2.10 2.14 2.14
0.29 0.26 0.26 0.27 0.28 0.36 0.41 0.45 0.55 0.59 0.66 0.60 0.40 0.34 0.51 0.74 0.86 0.94 0.97 0.96 0.97 1.01 1.01 1.02 0.89 1.01 1.09 1.09 1.17 1.26 1.25 1.23 1.25 1.36 1.46 1.51 1.52 1.50 1.53 1.56 1.62 1.60 1.59 1.60 1.63 1.66 1.70 1.73 1.75 1.73 1.73 1.73 1.71 1.72 1.74 1.76 1.75 1.77 1.86 1.94 1.98 1.96 2.00
0.27 0.29 0.25 0.26 0.30 0.39 0.47 0.54 0.57 0.63 0.48 0.31 0.34 0.61 0.79 0.83 0.88 0.98 1.00 0.98 1.02 1.05 1.03 1.05 1.04 1.11 1.21 1.25 1.27 1.25 1.22 1.22 1.21 1.23 1.33 1.38 1.42 1.48 1.52 1.56 1.56 1.57 1.58 1.58 1.62 1.65 1.68 1.73 1.75 1.73 1.68 1.63 1.63 1.67 1.70 1.75 1.76 1.75 1.80 1.83 1.86 1.97 1.88
0.33 0.31 0.27 0.25 0.20 0.39 0.51 0.56 0.55 0.61 0.37 0.44 0.59 0.72 0.86 0.93 0.96 0.98 1.02 1.04 1.06 1.09 1.05 1.11 1.14 1.16 1.18 1.22 1.22 1.22 1.21 1.20 1.20 1.20 1.22 1.24 1.28 1.32 1.36 1.39 1.46 1.50 1.47 1.50 1.59 1.64 1.71 1.75 1.70 1.69 1.67 1.61 1.61 1.61 1.61 1.66 1.71 1.71 1.72 1.75 1.84 1.78 1.76
0.28 0.28 0.25 0.25 0.34 0.46 0.57 0.52 0.40 0.52 0.56 0.65 0.69 0.73 0.77 0.94 1.00 1.01 1.04 1.08 1.12 1.14 1.11 1.12 1.15 1.18 1.17 1.19 1.19 1.16 1.17 1.17 1.17 1.14 1.13 1.17 1.20 1.23 1.27 1.30 1.32 1.35 1.35 1.38 1.38 1.42 1.54 1.58 1.63 1.67 1.61 1.57 1.57 1.56 1.57 1.66 1.68 1.67 1.69 1.67 1.71 1.70 1.69
0.34 0.32 0.37 0.46 0.53 0.58 0.64 0.61 0.60 0.62 0.69 0.75 0.76 0.78 0.83 0.88 0.97 1.13 1.10 1.10 1.14 1.16 1.14 1.16 1.16 1.12 1.15 1.14 1.14 1.09 1.07 1.09 1.07 1.06 1.07 1.10 1.12 1.12 1.11 1.14 1.20 1.20 1.20 1.21 1.24 1.27 1.31 1.35 1.41 1.44 1.46 1.43 1.41 1.40 1.47 1.55 1.52 1.54 1.51 1.49 1.48 1.45 1.44
0.45 0.50 0.51 0.58 0.59 0.61 0.64 0.71 0.73 0.71 0.74 0.79 0.83 0.83 0.83 0.92 1.01 1.11 1.13 1.14 1.12 1.15 1.20 1.14 1.13 1.12 1.13 1.10 1.08 1.05 1.04 1.03 1.03 1.02 1.03 1.03 1.04 1.04 1.03 1.05 1.07 1.08 1.09 1.11 1.11 1.10 1.12 1.16 1.18 1.20 1.20 1.19 1.17 1.22 1.30 1.31 1.33 1.31 1.28 1.26 1.27 1.31 1.34
0.37 0.32 0.52 0.52 0.56 0.64 0.68 0.72 0.77 0.81 0.82 0.83 0.89 0.89 0.90 0.96 1.05 1.11 1.18 1.20 1.21 1.21 1.22 1.18 1.14 1.13 1.12 1.05 1.02 1.01 0.98 0.94 0.93 0.93 0.93 0.96 0.97 0.96 0.95 0.98 1.00 1.00 1.00 1.00 1.01 1.01 1.00 1.03 1.05 1.09 1.12 1.15 1.16 1.16 1.14 1.15 1.13 1.11 1.11 1.13 1.13 1.15 1.16
0.38 0.39 0.51 0.59 0.67 0.70 0.75 0.76 0.76 0.76 0.82 0.89 0.96 0.97 0.99 1.02 1.06 1.09 1.12 1.21 1.26 1.29 1.24 1.23 1.17 1.13 1.11 1.04 0.98 0.95 0.93 0.92 0.91 0.89 0.88 0.90 0.92 0.95 0.96 0.94 0.91 0.90 0.92 0.94 0.94 0.94 0.94 0.96 0.97 1.01 1.06 1.08 1.10 1.10 1.10 1.11 1.10 1.09 1.07 1.06 1.04 1.06 1.06
0.48 0.53 0.56 0.61 0.66 0.69 0.74 0.79 0.82 0.86 0.89 0.93 0.97 1.01 1.01 1.01 1.03 1.07 1.12 1.16 1.24 1.27 1.29 1.26 1.19 1.12 1.09 1.03 0.98 0.94 0.94 0.93 0.91 0.91 0.91 0.90 0.90 0.91 0.89 0.88 0.85 0.83 0.84 0.85 0.87 0.89 0.93 0.97 0.99 1.01 1.02 1.06 1.08 1.08 1.10 1.09 1.07 1.03 1.02 1.02 1.03 1.02 1.03
0.35 0.37 0.46 0.58 0.47 0.48 0.61 0.68 0.75 0.83 0.92 0.95 0.92 0.94 0.94 0.97 0.97 1.01 1.05 1.17 1.25 1.24 1.27 1.28 1.19 1.09 1.04 1.02 1.02 0.99 1.01 1.01 1.00 0.98 0.94 0.92 0.91 0.90 0.92 0.93 0.93 0.92 0.92 0.91 0.91 0.92 0.94 0.96 0.95 0.93 0.93 0.95 0.99 1.04 1.05 1.05 1.04 1.00 1.00 0.99 0.99 0.98 0.99
0.34 0.46 0.55 0.65 0.61 0.57 0.61 0.68 0.78 0.87 0.92 0.92 0.90 0.90 0.88 0.90 0.96 1.04 1.12 1.16 1.18 1.18 1.22 1.28 1.25 1.17 1.14 1.12 1.12 1.09 1.08 1.09 1.11 1.09 1.04 0.97 0.94 0.92 0.93 0.92 0.93 0.94 0.95 0.95 0.93 0.92 0.94 0.97 0.97 0.96 0.96 0.97 0.98 0.98 0.99 0.99 0.99 0.98 0.98 0.97 0.97 0.98 0.98
0.47 0.51 0.62 0.63 0.56 0.52 0.58 0.71 0.79 0.84 0.86 0.86 0.87 0.93 0.96 0.94 0.96 1.05 1.12 1.24 1.21 1.23 1.26 1.29 1.33 1.31 1.28 1.21 1.17 1.12 1.11 1.11 1.10 1.11 1.10 1.07 1.02 0.97 0.96 0.93 0.92 0.92 0.93 0.94 0.95 0.96 0.99 0.98 0.98 0.99 0.98 0.99 1.01 1.01 1.02 1.01 1.00 0.97 0.96 0.94 0.93 0.95 0.97
0.48 0.60 0.66 0.64 0.63 0.59 0.63 0.72 0.80 0.85 0.83 0.80 0.82 0.90 0.94 0.93 1.01 1.10 1.13 1.18 1.28 1.29 1.28 1.29 1.32 1.34 1.30 1.29 1.24 1.17 1.14 1.14 1.14 1.13 1.13 1.12 1.11 1.08 1.05 1.01 0.96 0.93 0.93 0.96 0.98 0.98 0.98 0.98 0.99 0.99 0.96 0.98 1.00 1.01 1.02 1.02 1.00 0.97 0.95 0.93 0.91 0.92 0.93
Wind_Speed
7 10 11 11 11 11 13 14 15 14 13 13 12 11 11 11 12 12 12 12 12 11 11 11 11 11 11 10 13 23 29 28 28 28 28 28 27 26 26 25 25 25 25 25 24 23 22 22 21 20 20 19 19 19 18 18 18 17 17 17 16 15 15
5 8 10 11 11 11 12 13 13 14 14 13 12 12 11 12 13 11 12 13 12 11 10 10 11 12 12 11 12 19 27 30 29 29 28 28 28 27 26 26 26 26 26 26 25 24 23 22 22 21 21 20 20 19 19 19 18 18 17 17 16 16 15
4 6 9 10 10 10 11 11 12 13 14 14 12 12 11 11 12 11 11 12 12 12 11 10 11 13 12 11 11 16 25 30 31 30 29 29 28 27 27 27 26 26 26 26 25 24 24 23 22 21 21 20 20 20 19 19 19 18 18 17 17 16 16
6 6 8 10 11 10 11 11 11 12 13 13 13 12 12 11 11 11 10 10 10 10 9 9 11 12 12 12 11 13 23 30 31 30 29 28 27 27 27 27 27 27 27 26 26 25 24 24 23 22 21 21 21 20 19 19 19 19 18 18 17 17 17
6 6 6 9 11 11 12 11 11 11 11 12 13 13 13 13 11 10 11 11 10 8 8 9 10 11 12 13 12 12 19 27 30 30 30 28 27 27 27 27 27 27 27 27 26 26 25 24 24 23 22 22 21 21 20 20 19 19 19 19 18 18 17
6 6 6 8 10 11 11 11 11 11 12 12 11 11 12 14 13 11 11 12 10 8 8 9 9 10 11 12 12 12 15 23 29 31 30 29 28 28 28 28 28 27 27 27 26 26 25 25 24 24 23 23 22 22 21 20 20 19 19 19 19 19 18
7 7 7 7 9 10 9 9 10 11 12 13 12 10 10 12 13 12 11 11 9 8 8 8 8 8 9 10 11 11 13 19 26 29 29 29 28 28 28 28 28 27 27 27 26 26 26 25 25 25 24 23 23 22 22 21 21 20 20 20 20 19 19
9 9 8 8 8 9 8 7 8 9 11 13 13 11 9 9 11 11 11 10 8 7 7 7 6 6 6 7 8 9 10 16 23 27 28 28 28 28 28 28 28 28 28 27 27 27 26 26 25 25 25 24 24 23 23 22 22 21 21 20 20 20 20
10 11 11 10 10 9 8 7 7 8 9 11 12 12 11 10 10 10 11 10 7 6 6 6 5 4 4 4 6 7 9 14 20 24 26 27 28 29 29 28 28 28 28 28 27 27 26 26 26 26 25 25 25 24 24 24 23 22 22 21 21 21 21
11 13 13 12 12 11 10 8 8 8 8 9 11 11 12 11 9 9 11 10 7 6 6 5 5 4 3 3 4 5 7 13 19 22 24 26 27 28 29 28 28 28 28 28 27 27 27 27 26 26 26 26 25 25 25 25 24 23 22 22 21 21 21
12 12 12 12 12 12 11 10 9 8 8 8 9 10 12 11 9 9 10 9 9 8 6 6 5 4 3 3 3 4 6 11 16 20 22 23 25 27 28 27 27 28 28 28 28 27 27 27 27 26 26 26 26 25 26 25 25 24 23 23 22 22 22
11 11 11 11 12 13 12 12 10 10 9 8 8 9 10 11 11 10 8 9 10 8 7 7 6 5 4 3 2 2 5 9 14 17 20 22 23 25 26 26 27 27 27 27 27 27 27 27 27 27 26 26 26 26 26 25 25 25 24 24 23 23 22
10 10 10 11 12 13 13 13 12 11 10 9 8 9 10 11 12 11 10 10 10 8 7 7 7 7 6 5 3 2 3 7 10 14 17 20 23 25 26 26 26 26 26 26 27 27 27 27 27 27 26 26 26 26 26 26 26 26 25 25 24 23 23
9 10 10 12 13 14 14 13 13 13 11 10 10 10 10 11 12 12 11 11 10 9 8 8 7 8 8 7 5 3 2 3 7 10 13 16 20 24 25 25 24 24 25 25 26 26 27 27 27 27 27 27 27 27 27 27 27 26 26 25 25 24 24
10 10 10 12 14 15 16 15 14 14 13 12 11 11 11 11 11 11 12 12 10 9 9 8 8 9 8 7 6 5 3 3 4 7 9 12 16 20 23 23 23 23 24 24 25 26 27 27 27 27 27 27 28 28 28 28 28 27 27 27 26 26 25
10 10 10 11 12 15 17 18 17 16 16 15 14 13 13 12 12 11 12 13 11 10 10 9 9 10 9 8 7 6 4 4 4 5 6 10 13 17 19 20 20 20 22 23 24 25 26 27 27 27 28 28 28 29 29 29 29 28 28 28 28 27 26
10 9 10 10 11 13 16 17 17 17 17 17 16 15 14 14 12 12 13 13 12 11 10 10 10 10 10 10 9 7 6 5 5 5 6 8 11 13 15 16 16 16 18 19 21 22 23 24 25 26 27 27 28 29 29 29 29 29 29 29 28 28 27
9 9 10 11 12 12 12 12 14 16 17 18 17 16 16 15 13 13 12 12 12 11 10 11 11 10 9 10 9 8 6 6 6 6 6 7 8 10 11 12 13 13 14 16 17 18 20 21 22 23 24 25 26 26 27 28 28 29 30 30 30 30 29
9 9 10 12 12 11 11 11 12 14 16 17 18 18 17 17 15 13 13 13 13 12 11 11 10 9 8 8 7 7 6 6 6 7 7 8 9 9 9 9 10 10 12 13 14 15 17 18 19 20 21 22 23 24 25 26 27 28 29 31 32 32 31
8 9 10 11 11 10 11 12 12 13 14 16 17 18 19 18 17 15 14 13 14 13 12 12 11 10 9 8 7 7 7 6 6 7 8 9 10 10 10 9 8 8 9 10 12 13 15 16 16 17 18 19 20 22 23 25 26 27 29 30 31 32 33
7 8 9 11 11 11 11 12 12 13 14 15 15 17 18 19 18 16 14 14 14 14 13 13 12 11 11 9 8 7 7 6 6 7 8 9 9 10 10 9 9 8 8 9 10 11 12 13 14 15 16 17 18 19 20 22 24 26 27 28 29 31 32
7 8 9 10 11 10 10 10 11 12 13 14 15 16 17 18 19 17 15 14 15 15 14 13 13 12 11 10 8 8 7 6 6 6 7 8 8 8 9 8 8 8 8 8 8 8 9 9 10 12 13 13 14 14 14 16 18 20 22 24 26 28 29
8 8 9 9 10 10 10 10 10 11 12 13 14 15 16 17 18 18 16 15 15 16 15 14 14 13 12 10 9 9 8 7 7 6 5 6 7 7 7 7 7 7 7 7 7 8 8 8 8 9 10 10 10 9 9 10 11 12 13 15 18 20 22
9 10 10 10 11 11 10 11 11 11 12 12 13 14 14 15 18 19 17 17 16 16 15 15 15 14 13 11 11 10 8 8 8 6 4 5 6 7 6 6 6 6 6 6 7 7 7 7 8 8 8 8 8 7 7 7 7 7 7 9 10 12 15
10 11 11 11 11 10 11 11 11 11 12 13 14 14 12 13 17 19 18 18 17 16 15 14 15 14 13 12 11 11 9 8 8 7 6 5 5 6 6 6 6 6 6 6 6 6 6 7 7 7 7 7 7 6 6 6 5 5 5 6 6 7 9
10 11 11 11 11 10 9 10 11 12 14 14 14 14 13 14 16 18 18 19 18 16 15 14 14 14 13 12 12 12 10 9 7 7 7 6 5 5 6 6 6 6 6 5 5 5 6 6 7 7 7 7 7 6 6 5 5 4 4 4 5 6 7
9 10 10 10 10 9 8 9 11 13 14 14 13 14 14 15 16 17 18 19 18 17 15 14 15 15 13 13 13 12 11 9 8 7 7 7 6 6 6 7 7 6 6 6 6 5 5 5 5 6 6 6 6 6 6 5 5 4 4 5 5 6 6
9 9 9 9 9 9 9 10 11 12 13 14 15 15 15 16 17 17 17 18 19 18 17 16 16 15 14 14 14 13 11 9 8 8 7 7 6 6 6 7 7 7 8 8 7 6 5 4 4 5 5 5 6 6 6 6 5 4 5 5 5 5 5
10 10 10 10 10 10 11 12 12 12 13 14 15 16 16 16 18 18 17 18 19 19 19 18 17 16 15 14 14 14 12 10 9 8 7 6 6 6 7 7 7 7 8 8 8 7 6 5 5 5 5 5 5 5 6 6 5 5 5 5 5 5 5
9 10 10 10 11 11 12 12 12 13 13 14 14 15 16 16 18 18 18 18 19 19 20 19 18 17 16 15 15 14 13 12 11 10 8 7 7 6 7 7 6 6 7 7 7 7 6 6 5 5 4 4 4 4 5 6 5 5 5 5 5 4 4
9 10 10 10 11 11 11 11 11 12 12 13 13 14 14 15 17 17 17 18 20 21 20 19 19 19 18 16 15 15 14 14 13 12 10 9 8 7 7 6 6 6 6 6 6 6 6 6 5 4 3 3 3 4 5 5 5 5 4 4 4 5 5
9 9 9 10 11 11 10 10 10 11 11 12 12 13 14 14 16 17 17 17 19 20 20 20 20 19 19 18 16 15 15 14 14 13 12 11 10 9 8 7 7 6 6 6 6 6 5 5 4 4 3 3 3 3 4 4 5 4 4 4 4 4 5
8 8 9 9 10 9 9 9 10 10 11 12 12 13 14 15 16 17 17 17 17 18 18 19 20 20 19 18 17 16 15 15 14 14 13 12 11 10 9 9 8 7 6 6 6 5 5 5 4 3 3 3 3 3 4 4 5 4 4 5 5 5 5
8 7 8 8 8 7 8 8 9 10 11 12 12 13 13 14 15 16 17 17 17 17 16 17 19 20 19 18 17 16 15 15 14 14 13 12 12 11 10 10 9 7 7 6 6 5 5 5 4 4 4 4 4 4 4 5 5 5 5 6 6 6 7
7 6 7 7 6 5 5 6 7 8 10 11 12 12 13 13 14 15 16 17 18 18 17 17 17 19 19 18 17 16 15 15 14 13 13 12 12 11 10 10 9 8 7 7 6 6 6 5 5 5 4 4 5 5 6 6 6 7 7 8 8 9 9
5 5 7 6 4 3 3 3 4 6 8 9 11 13 13 13 13 13 15 17 18 19 19 18 17 17 17 17 17 16 15 15 14 13 12 12 12 11 10 10 9 9 8 8 7 7 7 7 6 6 6 6 6 6 7 8 8 9 9 10 10 11 11
4 4 5 6 4 3 2 0 1 4 7 7 10 13 14 14 15 14 14 16 18 19 19 18 17 16 15 15 15 16 15 14 13 12 12 11 11 10 10 9 9 8 8 8 8 8 7 7 7 7 7 7 8 8 8 8 9 9 10 11 12 12 13
Wind_Direction
232 228 217 213 216 213 211 215 217 218 220 223 225 226 225 227 231 229 225 233 241 243 246 239 231 232 229 227 215 207 206 205 203 203 203 202 202 202 204 204 204 204 203 203 204 204 203 203 203 202 202 201 201 200 200 200 202 203 204 205 205 206 207
243 233 216 210 218 220 215 215 217 217 218 222 225 225 225 227 233 232 226 234 242 242 244 239 231 232 231 231 225 211 207 206 206 206 205 204 205 204 205 206 205 205 204 203 204 205 204 205 205 205 205 205 205 205 204 204 204 205 206 207 208 209 211
252 225 209 206 213 222 220 216 219 220 219 221 224 226 229 230 235 235 228 235 243 240 242 244 236 234 233 232 231 218 209 207 206 206 205 205 206 206 206 205 205 205 205 205 205 205 206 206 207 207 207 208 209 209 208 208 208 209 210 210 210 211 212
241 224 216 214 211 214 217 214 219 224 223 224 224 226 231 234 238 241 237 238 240 239 246 252 247 241 234 231 234 224 213 208 205 204 205 205 205 206 205 204 204 205 206 206 207 207 207 207 208 209 209 209 211 211 212 212 212 213 213 213 213 214 214
233 228 228 225 217 214 215 214 218 223 221 221 223 227 233 237 240 242 243 245 243 242 250 256 255 252 240 232 234 229 214 208 205 204 205 205 206 206 205 204 205 205 207 208 209 209 209 209 210 210 210 211 212 213 214 215 215 215 216 216 217 217 217
226 221 224 227 223 218 217 219 224 226 223 219 221 228 232 234 236 238 244 250 249 245 250 256 256 255 247 236 232 229 216 207 204 204 205 206 207 207 206 206 207 207 208 209 210 211 211 211 211 211 212 213 214 214 215 216 217 218 219 219 220 220 220
231 225 221 219 216 212 212 220 227 229 226 222 219 222 227 229 231 233 240 246 244 242 248 254 254 252 250 242 234 229 216 206 203 204 205 206 208 208 208 209 209 210 210 210 211 211 212 213 213 213 214 214 215 216 216 217 218 220 221 222 222 223 223
233 228 220 212 210 210 209 217 224 225 226 224 221 222 229 233 230 229 234 238 237 241 247 247 247 249 252 250 245 236 219 207 204 204 206 208 208 209 210 211 211 212 212 212 212 212 213 214 214 214 215 216 217 217 218 219 220 221 223 224 224 224 224
223 218 217 214 215 218 218 219 223 228 230 227 223 224 227 233 234 230 233 235 235 240 243 239 242 250 256 255 245 234 221 210 206 205 207 208 209 210 211 211 212 213 213 213 213 214 215 216 216 216 217 218 218 219 220 221 221 223 224 225 225 225 225
228 223 224 221 218 220 223 223 222 228 233 229 226 223 221 226 233 229 229 233 237 240 242 241 245 253 260 256 241 230 218 208 205 206 207 208 210 211 212 212 212 213 213 214 215 215 216 217 218 219 219 219 220 221 222 223 223 224 225 226 227 227 227
242 239 233 225 221 221 222 224 223 224 229 230 228 225 223 229 237 231 229 239 245 245 245 245 248 252 251 250 244 232 217 204 202 205 208 209 210 210 211 212 212 213 214 215 216 217 218 219 220 221 221 222 222 223 224 226 226 225 226 227 228 228 229
245 241 234 229 228 225 223 225 226 223 226 230 230 230 232 235 236 233 236 245 246 244 245 245 244 243 240 236 222 206 207 203 201 204 208 210 211 210 210 211 212 213 214 215 217 218 219 220 221 223 224 224 225 225 226 228 228 228 227 227 228 229 230
243 237 234 232 231 229 226 227 227 225 226 230 232 234 235 235 237 240 247 248 243 241 245 243 235 231 232 229 211 171 182 198 201 203 206 209 210 210 209 210 212 214 215 216 218 219 220 221 222 224 225 226 227 228 228 229 229 229 229 229 229 229 230
244 240 238 234 232 232 232 229 229 228 227 229 234 237 239 241 242 244 246 244 240 238 240 239 230 224 225 226 218 190 159 183 194 199 206 209 209 209 207 208 211 214 216 218 219 221 222 222 223 224 226 227 228 229 230 230 230 231 230 230 230 231 231
245 243 241 237 234 235 237 235 234 232 229 229 235 239 243 247 247 245 243 240 237 235 232 231 228 223 221 225 223 212 192 183 183 189 198 202 201 202 204 207 212 215 219 221 222 223 224 224 225 226 227 228 230 231 232 232 232 232 232 231 232 233 233
246 245 246 245 240 238 241 241 238 236 235 234 236 239 243 245 246 246 242 236 236 235 227 224 227 223 218 222 228 226 212 195 186 180 181 185 188 193 200 206 211 215 219 222 224 225 225 225 226 228 229 230 231 232 234 234 233 233 233 233 233 233 234
249 245 248 248 242 240 241 241 238 238 238 237 235 237 241 242 243 245 240 233 234 237 227 221 227 227 221 221 226 230 230 220 205 188 177 175 178 185 194 202 207 211 215 219 221 222 222 223 226 228 230 231 232 233 234 234 235 234 233 233 233 233 234
253 246 247 245 242 242 240 239 239 238 237 236 236 237 239 239 240 243 238 230 231 238 231 223 227 231 228 227 226 226 231 229 213 198 187 178 174 177 186 194 201 207 211 215 218 219 220 222 225 227 229 231 232 233 233 234 235 235 234 234 234 234 235
256 249 246 244 242 242 240 240 241 239 236 235 238 239 238 237 238 237 230 224 226 232 231 225 227 230 230 231 229 221 220 226 220 210 200 190 184 183 186 188 191 197 203 208 213 217 220 222 225 227 229 231 233 234 235 236 237 238 237 235 235 236 236
259 249 243 242 244 244 243 245 244 239 237 236 237 237 234 232 234 233 227 223 223 225 227 224 225 228 229 232 236 226 218 222 226 223 215 205 197 193 193 192 190 191 196 201 207 213 218 221 224 227 229 231 234 236 237 239 239 240 239 238 238 237 236
258 252 246 248 252 248 243 244 241 235 236 237 236 236 232 228 229 231 229 225 223 224 225 222 223 230 233 235 240 233 220 215 215 217 215 208 200 195 194 196 196 197 199 200 202 205 210 216 221 225 228 230 232 236 239 240 239 239 240 240 239 238 237
256 255 253 252 252 248 241 240 239 236 237 237 235 236 234 226 223 226 227 225 223 223 221 219 222 229 231 230 232 227 215 206 202 203 202 198 193 190 192 195 197 199 200 198 195 193 197 205 213 219 223 224 227 231 236 237 237 238 239 240 239 237 236
249 250 253 249 247 249 245 242 241 237 235 235 233 236 236 226 219 220 222 222 222 220 219 220 224 225 222 222 226 226 215 198 191 193 193 189 187 185 186 189 191 193 196 194 189 186 186 189 196 203 208 212 216 219 223 225 227 230 234 236 235 232 230
250 248 252 252 250 251 250 246 244 237 234 234 232 233 233 224 219 219 218 218 220 219 220 224 227 226 222 219 220 223 216 198 191 195 191 182 182 183 184 186 182 181 186 187 185 184 185 189 194 196 196 200 204 205 204 206 208 213 219 223 225 224 222
254 250 252 256 255 254 252 248 242 236 234 233 231 231 231 223 218 218 217 218 218 219 221 226 227 223 216 211 210 213 212 203 201 205 202 190 184 183 187 192 187 181 181 184 183 182 181 181 185 186 185 184 181 179 179 181 181 182 187 196 203 203 202
256 253 253 257 258 256 253 246 240 237 236 234 234 234 231 224 218 217 217 217 216 218 221 223 220 213 206 203 203 205 205 202 201 202 200 199 198 192 190 193 190 184 180 176 174 180 184 187 189 188 183 179 176 173 169 168 171 174 174 172 173 172 173
256 252 250 255 259 258 252 243 240 239 239 240 241 237 230 223 219 217 217 216 216 218 219 216 210 206 203 202 199 198 199 200 197 195 194 193 195 197 195 193 189 184 177 171 169 175 183 188 190 186 180 182 186 182 174 174 180 185 184 175 164 160 164
254 249 247 255 262 262 258 252 250 247 246 245 243 236 229 223 221 219 217 215 215 217 216 212 207 203 202 201 197 193 193 192 189 190 189 184 184 189 191 190 188 182 176 175 177 177 175 173 174 173 173 181 187 184 184 192 195 189 185 181 172 165 167
257 258 259 264 267 266 264 262 260 256 250 245 239 233 228 223 221 221 219 215 215 215 213 210 207 204 201 199 195 192 190 186 181 184 186 181 176 178 180 182 181 176 175 177 180 181 183 182 178 175 173 171 173 180 191 199 200 194 191 189 185 181 180
262 264 264 265 267 269 268 265 261 256 248 241 235 230 226 223 221 221 220 217 214 212 211 208 207 205 203 199 196 194 194 193 191 190 190 187 180 176 177 178 175 172 174 178 182 186 192 191 182 176 173 169 172 186 198 203 207 210 207 203 203 205 207
261 263 264 265 268 269 268 263 258 251 244 237 232 226 223 223 221 219 220 219 214 210 208 206 204 204 203 201 199 197 198 200 200 198 197 196 193 189 188 186 181 176 174 176 179 183 191 196 194 189 183 181 186 196 202 207 215 220 222 222 225 228 229
265 271 271 270 270 267 263 258 252 245 238 232 228 223 218 217 217 216 218 218 214 210 207 204 203 203 203 202 200 200 200 201 202 201 200 199 199 198 196 195 191 186 180 176 174 177 184 191 195 193 191 192 196 199 205 214 222 227 231 235 235 233 233
270 275 269 266 268 265 258 255 250 242 234 227 222 220 215 212 213 216 217 215 210 206 204 203 202 201 200 199 198 197 197 197 198 199 199 199 199 198 198 197 195 191 188 184 182 184 191 194 196 198 203 209 211 208 212 220 225 230 233 236 238 240 240
271 270 256 254 262 263 257 257 252 241 232 222 214 212 211 210 210 211 211 209 203 198 196 197 195 193 193 194 194 193 193 192 192 194 196 197 198 198 197 196 194 192 193 194 194 198 203 205 204 206 212 219 224 225 227 230 233 235 237 238 242 246 248
275 263 239 236 252 259 256 261 255 237 227 218 208 204 204 205 203 200 199 199 196 192 188 186 185 186 187 187 187 187 188 188 186 188 191 194 198 199 197 195 194 195 197 199 202 208 215 219 220 222 225 230 236 240 243 246 247 247 248 249 250 253 256
278 255 225 219 231 235 236 256 250 227 216 207 200 198 198 197 194 190 189 189 188 184 180 177 178 180 182 183 183 183 183 183 183 184 186 190 196 199 198 196 196 198 201 204 208 214 222 227 231 236 239 244 249 252 255 256 256 256 257 258 259 260 262
268 237 211 207 203 177 155 115 222 209 203 192 187 189 191 187 181 175 173 173 173 173 172 171 173 175 178 180 181 180 179 179 180 181 184 188 192 195 197 197 199 202 206 209 214 221 227 232 238 243 247 251 254 257 259 261 262 262 263 264 265 267 269